This is the latest recevied weather packets stored in our database for station/object WC4PEM-13. If no packets are shown the sender has not sent any weather packets the latest 10 day(s).
| Time | Temp. | Humidity | Pressure | Rain* | Wind** | Luminosity | Snow |
|---|---|---|---|---|---|---|---|
| 1777994549 | 27.78° C | 65% | 1016.2 hPa | 0 mm | - | - | - |
| 1777994249 | 27.22° C | 68% | 1016.3 hPa | 0 mm | - | - | - |
| 1777993949 | 27.22° C | 68% | 1016.3 hPa | 0 mm | - | - | - |
| 1777993649 | 26.67° C | 67% | 1016.3 hPa | 0 mm | - | - | - |
| 1777993349 | 26.67° C | 68% | 1016.3 hPa | 0 mm | - | - | - |
| 1777993049 | 26.67° C | 69% | 1016.3 hPa | 0 mm | - | - | - |
| 1777992749 | 26.67° C | 69% | 1016.1 hPa | 0 mm | - | - | - |
| 1777992449 | 26.11° C | 71% | 1016.1 hPa | 0 mm | - | - | - |
| 1777992149 | 26.11° C | 68% | 1016.1 hPa | 0 mm | - | - | - |
| 1777991849 | 26.11° C | 69% | 1016 hPa | 0 mm | - | - | - |
| 1777991549 | 25.56° C | 71% | 1015.9 hPa | 0 mm | - | - | - |
| 1777991249 | 25.56° C | 72% | 1016 hPa | 0 mm | - | - | - |
| 1777990949 | 25.56° C | 74% | 1016 hPa | 0 mm | - | - | - |
| 1777990649 | 25° C | 73% | 1015.9 hPa | 0 mm | - | - | - |
| 1777990349 | 25° C | 73% | 1015.9 hPa | 0 mm | - | - | - |
| 1777990049 | 25° C | 73% | 1016.1 hPa | 0 mm | - | - | - |
| 1777989749 | 24.44° C | 75% | 1016 hPa | 0 mm | - | - | - |
| 1777989449 | 24.44° C | 77% | 1016 hPa | 0 mm | - | - | - |
| 1777989149 | 24.44° C | 77% | 1016.1 hPa | 0 mm | - | - | - |
| 1777988849 | 24.44° C | 79% | 1016.1 hPa | 0 mm | - | - | - |
| 1777988549 | 23.89° C | 80% | 1015.9 hPa | 0 mm | - | - | - |
| 1777988249 | 23.89° C | 81% | 1016 hPa | 0 mm | - | - | - |
| 1777987949 | 23.33° C | 82% | 1016 hPa | 0 mm | - | - | - |
| 1777987649 | 23.33° C | 82% | 1015.8 hPa | 0 mm | - | - | - |
| 1777987349 | 22.78° C | 82% | 1015.9 hPa | 0 mm | - | - | - |
* Rain latest hour (hover to see other rain measurements)
** Current wind speed in m/s (hover to see current wind gust speed)